Wind_Speed
56 65 65 75 81 81 79 78 81 88 86 89 81 82 84 86 85 84 80 81 83 79 76 77 72 75 74 73 69 70 70 67 65 61 62 64 61 59 54 58 59 63 60 58 59
52 54 62 67 76 81 82 81 81 85 85 89 86 85 90 88 88 81 88 84 84 85 83 81 81 78 78 77 75 74 71 70 70 67 66 66 66 64 59 63 63 61 69 66 65
54 56 56 59 69 79 84 87 82 87 84 83 81 82 86 86 81 82 81 87 89 88 88 89 86 87 80 80 79 81 71 72 72 73 73 70 71 70 69 64 67 63 63 67 69
56 58 60 63 63 71 76 85 92 83 87 85 85 85 83 85 82 76 76 81 83 85 89 86 85 86 83 81 82 80 77 81 78 75 75 75 73 73 75 68 69 69 70 63 65
46 57 64 66 67 68 71 75 90 94 93 92 88 90 89 88 86 83 85 88 88 87 85 87 85 81 79 86 87 78 78 85 79 79 77 79 76 76 75 73 71 74 73 67 63
39 44 51 60 68 72 74 74 77 83 89 92 93 90 95 91 94 92 89 94 95 93 88 91 89 88 83 84 85 79 82 80 80 79 79 82 76 77 76 72 73 73 69 65 60
47 48 50 53 59 66 70 75 80 82 85 87 91 96 95 95 98 98 98 99 101 98 99 100 95 92 84 84 85 88 89 84 80 82 86 90 75 71 73 75 72 69 68 60 63
52 54 58 60 61 63 66 72 77 81 85 87 89 93 97 99 101 98 101 103 104 105 107 104 105 101 96 94 91 90 89 82 76 81 81 86 63 71 73 77 72 69 70 65 62
63 64 65 67 70 71 72 72 74 77 82 87 91 93 93 94 98 98 102 104 103 103 105 111 108 108 104 98 99 90 83 77 78 81 81 85 67 70 76 78 76 71 66 66 67
65 70 73 74 77 79 81 83 83 82 81 83 85 87 96 94 97 100 100 102 106 105 105 105 106 109 106 104 92 80 82 84 84 82 90 88 75 72 80 82 80 73 69 70 67
68 68 70 75 82 85 90 92 92 93 90 93 91 89 88 91 92 97 98 101 101 102 101 105 113 108 98 92 87 84 93 87 83 83 96 90 83 74 79 83 78 80 71 67 67
65 72 74 78 83 86 90 96 100 101 98 102 101 98 98 100 93 91 95 94 98 100 104 109 105 85 86 88 96 94 98 86 81 81 89 89 92 84 81 79 76 72 68 68 67
50 56 64 72 79 91 98 99 101 108 105 109 111 109 108 109 104 102 102 98 96 96 99 104 85 87 90 91 95 93 93 83 84 84 90 88 89 74 71 74 73 71 69 63 63
58 63 68 73 76 82 87 96 105 108 109 117 118 117 118 118 115 112 110 107 103 101 102 100 83 90 84 89 85 83 79 80 81 83 83 88 77 70 67 68 70 67 62 64 61
62 69 75 81 82 82 84 85 87 89 92 111 114 117 125 125 124 120 119 117 113 110 112 94 96 89 92 76 77 70 75 74 78 75 78 73 71 56 65 67 68 67 65 61 61
65 74 82 80 82 84 86 85 85 88 91 95 92 95 111 116 126 125 123 123 121 120 118 103 105 99 90 83 84 75 77 73 72 69 64 56 58 45 53 56 59 60 58 57 58
74 83 78 74 69 68 65 66 72 79 84 89 89 95 99 97 105 113 122 128 128 127 123 107 115 105 99 94 84 82 77 73 71 63 49 46 51 43 48 44 48 53 53 54 54
82 75 67 59 54 51 49 52 56 59 60 66 70 77 85 92 103 103 103 107 118 134 128 118 120 108 98 94 86 83 81 73 62 55 53 49 44 40 39 41 43 44 45 44 44
78 67 55 50 47 43 41 41 42 41 44 48 55 62 68 78 83 89 98 108 104 107 121 124 121 111 109 99 94 85 89 61 70 63 56 44 33 42 39 39 40 39 31 31 30
74 65 56 48 43 39 36 35 34 36 37 43 48 52 59 65 69 73 87 92 100 100 104 104 110 113 110 100 97 96 74 83 75 66 52 44 34 41 43 34 31 29 14 21 22
70 62 56 46 38 34 32 28 28 30 32 35 38 42 48 53 58 65 70 74 84 93 99 93 89 97 107 104 100 91 88 80 75 68 59 49 37 46 40 31 27 18 13 20 23
74 61 53 45 37 30 26 21 19 23 26 29 31 35 39 43 48 52 57 63 71 75 83 89 85 84 93 103 99 91 86 80 74 62 52 41 45 39 30 28 26 17 18 23 22
80 67 55 46 37 30 26 21 15 15 17 21 23 26 29 33 38 42 48 53 60 62 68 79 79 81 82 88 85 95 92 80 79 71 58 47 47 43 32 26 19 20 22 21 21
85 77 61 49 40 34 28 22 15 12 12 14 16 20 23 27 31 35 39 42 47 51 58 61 76 80 83 74 79 83 87 83 81 74 58 47 56 38 33 26 25 24 24 13 17
87 82 71 60 46 38 32 24 17 11 8 10 12 14 18 22 26 28 33 41 41 45 50 55 63 82 83 76 84 78 80 82 80 71 56 54 45 39 32 28 34 30 27 20 21
88 87 79 69 56 45 36 26 20 14 8 6 7 10 13 17 21 26 30 34 37 42 46 52 63 78 80 83 81 76 82 84 83 73 57 54 46 43 35 31 36 32 24 21 16
84 88 86 78 63 51 41 32 24 17 11 5 3 7 10 14 17 22 26 31 35 39 44 52 61 71 82 84 79 77 78 81 81 72 57 55 51 45 40 36 43 35 31 19 15
Wind_Direction
236 234 234 230 233 231 238 241 240 233 233 234 240 242 241 241 245 243 244 245 243 242 244 246 247 247 246 248 252 253 251 253 258 258 263 266 271 271 276 282 284 277 276 276 278
240 240 239 238 233 233 236 234 242 244 240 238 240 245 243 242 244 247 246 246 245 242 246 246 247 248 246 247 251 253 251 253 258 262 262 265 269 275 274 283 283 285 277 278 277
244 243 242 241 240 238 238 237 240 241 246 245 245 244 242 242 245 246 246 248 250 248 251 248 248 248 248 251 254 252 252 255 258 262 263 265 268 272 282 282 280 281 282 274 276
247 247 247 245 244 241 243 241 238 240 239 243 246 245 245 244 245 246 249 247 247 249 248 250 252 250 252 256 255 255 256 258 260 260 262 263 266 273 276 282 278 276 277 280 282
251 249 248 248 246 246 244 243 241 244 243 243 243 243 243 245 247 242 244 248 248 249 248 248 251 252 253 254 255 257 259 257 260 264 265 267 269 273 277 279 278 271 276 279 278
262 257 253 251 249 248 247 247 244 242 243 245 245 242 238 241 242 245 246 246 248 245 246 250 249 251 250 252 255 257 256 257 260 264 266 270 269 272 275 274 272 273 275 279 279
266 265 261 257 253 250 248 246 246 246 245 244 243 244 247 247 248 247 245 246 249 250 252 250 244 247 248 252 255 255 257 260 263 266 265 265 267 271 267 266 267 272 276 279 280
262 258 258 258 257 255 253 250 246 245 246 246 246 246 247 248 250 248 250 249 249 250 252 254 254 251 245 250 251 254 257 260 261 259 261 262 264 262 264 265 272 277 280 283 285
264 261 256 251 250 251 252 252 251 250 249 246 245 245 244 246 247 248 248 249 249 251 254 255 254 253 250 250 251 257 261 258 255 258 255 258 257 260 263 271 278 279 281 284 285
262 260 258 257 253 248 247 247 247 247 248 249 249 248 246 244 245 246 246 246 248 249 249 251 253 252 250 253 259 253 251 260 260 258 260 264 268 266 269 273 275 275 279 280 280
262 259 258 256 255 253 252 248 244 245 244 246 246 246 247 248 248 249 247 245 244 247 247 247 249 251 256 255 250 251 258 259 258 254 262 266 268 269 268 271 270 272 273 271 274
263 261 262 258 253 252 252 252 250 246 244 245 244 242 242 244 244 244 246 247 247 246 244 246 248 250 247 250 253 254 257 257 252 253 259 264 269 273 268 268 267 267 266 267 271
277 272 267 263 260 257 254 252 250 248 245 247 244 244 242 242 241 241 242 244 246 248 247 248 247 244 245 246 250 252 256 253 253 253 262 269 269 265 265 265 264 263 262 266 268
281 276 272 269 263 259 255 254 252 250 247 246 245 246 244 243 241 239 240 242 241 243 246 246 243 246 247 250 253 254 252 251 255 259 264 265 267 265 262 262 260 264 266 267 267
288 284 280 274 270 268 268 266 264 262 257 253 249 247 246 244 244 241 242 241 240 240 242 245 244 243 246 250 247 250 249 250 253 257 260 263 266 262 264 261 269 271 271 269 265
295 290 282 285 284 280 277 273 269 264 258 255 250 248 249 249 247 243 242 241 241 241 241 240 243 242 245 239 243 242 247 251 254 257 265 260 266 264 261 271 270 266 266 264 263
309 299 299 295 288 281 276 270 263 257 257 255 253 248 246 245 246 246 245 242 242 241 241 239 241 241 242 241 242 245 249 253 258 265 265 260 267 254 271 275 268 263 263 263 261
313 313 308 301 296 289 282 275 268 264 259 256 252 249 248 244 244 242 240 241 241 241 241 239 239 239 242 242 240 242 246 250 254 254 253 254 262 257 272 273 266 262 261 261 259
323 326 321 314 309 302 291 281 274 268 260 254 251 248 244 245 242 240 237 237 237 239 239 239 239 238 238 238 239 241 244 246 245 246 251 254 251 262 275 268 265 268 264 256 247
334 332 331 327 319 309 300 291 281 268 259 252 248 244 241 240 241 238 237 235 234 234 236 234 235 237 236 236 238 239 238 239 244 248 249 250 249 264 274 269 272 273 258 239 237
346 340 338 333 325 316 306 297 284 271 262 255 251 247 246 242 237 235 235 234 234 232 232 230 230 229 232 233 234 236 238 240 239 242 243 240 239 267 269 267 268 258 226 218 225
356 350 347 342 337 331 320 303 289 283 273 260 252 247 244 243 239 234 231 230 231 231 230 226 222 222 225 229 228 230 233 234 234 236 235 237 250 246 255 258 252 227 221 221 237
3 3 356 353 350 345 334 318 299 291 282 267 252 243 240 238 234 231 227 227 228 227 225 223 215 217 218 223 223 224 227 227 227 227 225 224 234 243 249 251 240 200 208 216 229
6 7 4 2 357 357 349 338 322 316 300 276 249 239 234 228 224 223 223 223 223 221 221 218 211 211 213 211 217 220 220 220 225 227 219 221 237 240 243 235 233 207 208 234 238
5 11 9 6 5 3 2 350 338 332 320 296 260 236 226 222 218 217 213 215 215 213 214 210 205 208 210 206 210 206 211 214 220 221 213 220 229 233 234 227 226 223 212 236 222
4 9 11 9 8 7 5 1 350 343 336 320 271 243 226 220 214 210 208 206 206 206 204 201 201 203 201 202 203 205 200 206 213 215 208 219 223 225 223 221 227 229 223 216 245
3 7 12 10 9 8 7 4 359 350 347 355 304 252 231 217 211 211 203 200 195 198 196 195 196 195 198 199 195 198 202 205 206 209 202 215 218 218 214 216 220 220 211 206 243
Height
10743 10746 10749 10753 10756 10761 10764 10767 10769 10774 10778 10782 10785 10790 10791 10795 10798 10806 10810 10810 10820 10824 10829 10830 10834 10838 10846 10850 10852 10852 10862 10865 10861 10861 10863 10865 10871 10871 10877 10874 10875 10872 10869 10867 10870
10734 10736 10739 10741 10744 10747 10751 10756 10756 10760 10765 10770 10775 10777 10778 10782 10785 10796 10788 10796 10803 10809 10813 10817 10819 10824 10834 10836 10841 10842 10850 10854 10848 10849 10853 10855 10859 10860 10868 10865 10866 10863 10856 10860 10860
10723 10725 10727 10729 10731 10735 10738 10741 10742 10745 10749 10754 10757 10759 10762 10767 10771 10775 10781 10782 10788 10795 10795 10801 10804 10812 10819 10822 10828 10830 10843 10837 10838 10840 10844 10847 10848 10852 10851 10859 10851 10854 10847 10850 10850
10710 10712 10713 10715 10717 10719 10722 10724 10726 10729 10733 10736 10739 10742 10746 10751 10757 10771 10769 10767 10769 10773 10778 10784 10789 10799 10806 10812 10808 10815 10828 10822 10827 10829 10833 10836 10839 10843 10843 10844 10841 10839 10833 10839 10840
10699 10699 10699 10700 10700 10702 10704 10706 10709 10712 10715 10719 10722 10724 10727 10734 10744 10748 10751 10748 10750 10755 10764 10770 10776 10783 10798 10793 10791 10811 10811 10806 10815 10816 10823 10824 10831 10833 10831 10831 10827 10826 10822 10828 10830
10688 10687 10685 10685 10685 10687 10688 10690 10691 10693 10695 10698 10701 10706 10709 10721 10718 10726 10733 10728 10731 10740 10746 10753 10766 10764 10778 10778 10779 10792 10791 10800 10803 10807 10812 10810 10818 10819 10821 10815 10809 10811 10814 10818 10820
10676 10673 10671 10670 10668 10667 10668 10669 10671 10673 10675 10678 10681 10687 10696 10701 10695 10704 10712 10714 10714 10721 10725 10731 10739 10745 10765 10772 10773 10771 10776 10788 10799 10795 10799 10790 10813 10812 10804 10796 10798 10801 10804 10810 10809
10662 10659 10657 10655 10652 10651 10650 10650 10649 10651 10653 10656 10660 10666 10677 10671 10674 10684 10683 10698 10699 10700 10706 10711 10718 10733 10742 10749 10753 10760 10763 10779 10783 10776 10782 10770 10812 10790 10786 10780 10790 10792 10790 10796 10797
10642 10640 10637 10635 10633 10633 10631 10630 10631 10632 10634 10636 10639 10645 10650 10652 10651 10658 10667 10673 10679 10682 10687 10690 10701 10710 10719 10735 10736 10753 10761 10757 10760 10759 10759 10750 10789 10780 10768 10770 10779 10783 10783 10785 10785
10620 10618 10615 10614 10613 10610 10608 10607 10607 10609 10613 10614 10616 10625 10621 10629 10631 10635 10640 10650 10653 10659 10667 10672 10673 10681 10699 10716 10739 10730 10728 10738 10749 10747 10737 10745 10771 10768 10760 10762 10768 10771 10775 10775 10773
10596 10593 10592 10589 10587 10583 10582 10581 10582 10581 10589 10585 10590 10598 10601 10603 10612 10613 10616 10626 10631 10638 10647 10649 10639 10668 10698 10694 10700 10709 10715 10729 10734 10729 10720 10739 10749 10760 10752 10750 10756 10761 10763 10760 10760
10571 10567 10564 10561 10557 10555 10551 10549 10550 10553 10563 10556 10560 10571 10574 10574 10590 10596 10591 10599 10605 10618 10617 10613 10638 10678 10654 10666 10676 10693 10701 10716 10712 10716 10707 10726 10737 10748 10742 10741 10742 10744 10746 10746 10746
10553 10546 10539 10531 10527 10522 10519 10515 10516 10517 10532 10531 10527 10537 10546 10546 10560 10569 10571 10578 10584 10589 10596 10597 10649 10625 10642 10645 10657 10678 10692 10690 10695 10693 10700 10714 10725 10727 10731 10728 10727 10727 10730 10736 10733
10534 10524 10514 10504 10498 10487 10484 10480 10481 10483 10498 10486 10493 10505 10509 10515 10527 10534 10545 10553 10563 10570 10568 10581 10619 10616 10622 10635 10650 10660 10667 10667 10679 10686 10700 10691 10715 10714 10712 10715 10709 10715 10720 10719 10722
10513 10500 10487 10473 10463 10458 10455 10454 10454 10457 10465 10446 10464 10471 10466 10481 10489 10508 10514 10525 10537 10543 10537 10589 10586 10598 10607 10641 10625 10655 10635 10656 10663 10676 10680 10690 10694 10704 10695 10697 10706 10707 10708 10710 10707
10493 10473 10452 10446 10434 10425 10420 10417 10418 10416 10415 10412 10423 10439 10434 10450 10453 10474 10488 10499 10507 10514 10523 10566 10560 10575 10603 10610 10611 10628 10628 10641 10651 10664 10675 10679 10687 10692 10679 10697 10695 10693 10694 10695 10695
10466 10439 10424 10408 10400 10388 10384 10381 10378 10375 10375 10378 10391 10395 10401 10419 10420 10438 10452 10468 10476 10485 10502 10549 10531 10557 10575 10588 10606 10611 10621 10633 10643 10657 10674 10668 10675 10677 10680 10686 10683 10679 10680 10683 10684
10432 10414 10392 10379 10368 10362 10357 10352 10348 10347 10354 10355 10360 10364 10370 10379 10384 10404 10420 10430 10444 10451 10474 10504 10505 10542 10570 10578 10596 10601 10609 10625 10641 10647 10653 10658 10667 10667 10674 10674 10671 10670 10671 10672 10676
10409 10391 10372 10358 10347 10340 10335 10331 10327 10330 10331 10333 10335 10337 10345 10347 10358 10374 10385 10390 10407 10433 10443 10468 10494 10522 10534 10558 10570 10596 10591 10635 10620 10633 10642 10653 10661 10658 10664 10664 10662 10662 10664 10665 10667
10393 10372 10355 10342 10331 10323 10317 10313 10311 10309 10311 10311 10313 10317 10321 10327 10336 10348 10347 10367 10383 10401 10411 10443 10466 10501 10523 10540 10554 10562 10608 10593 10612 10629 10641 10645 10651 10652 10654 10655 10654 10655 10657 10659 10661
10383 10359 10343 10330 10321 10311 10305 10300 10297 10295 10295 10296 10297 10299 10302 10307 10315 10323 10335 10349 10358 10375 10387 10419 10448 10475 10493 10516 10539 10559 10570 10593 10606 10618 10629 10635 10642 10644 10648 10648 10648 10651 10653 10656 10660
10376 10353 10336 10322 10311 10303 10297 10291 10288 10286 10286 10284 10285 10286 10289 10294 10301 10310 10319 10330 10340 10355 10375 10394 10422 10450 10468 10491 10520 10546 10559 10580 10596 10613 10623 10630 10633 10635 10641 10642 10643 10646 10650 10656 10658
10374 10353 10335 10319 10308 10299 10291 10285 10281 10278 10277 10276 10276 10277 10280 10284 10290 10298 10306 10317 10327 10342 10357 10374 10411 10432 10452 10468 10508 10520 10545 10568 10581 10593 10610 10619 10620 10629 10635 10636 10638 10643 10648 10652 10655
10377 10353 10334 10319 10307 10297 10288 10281 10276 10273 10270 10270 10270 10271 10272 10275 10281 10288 10297 10308 10318 10333 10344 10364 10391 10415 10433 10468 10487 10505 10531 10553 10570 10585 10603 10611 10611 10625 10628 10630 10635 10639 10644 10648 10650
10380 10357 10336 10321 10308 10297 10287 10280 10275 10270 10267 10266 10267 10267 10268 10271 10276 10283 10291 10297 10311 10323 10337 10355 10381 10393 10416 10445 10459 10488 10517 10541 10560 10579 10593 10598 10607 10615 10620 10626 10631 10635 10640 10644 10648
10382 10359 10339 10324 10310 10298 10288 10281 10275 10270 10266 10265 10265 10265 10267 10270 10274 10277 10285 10294 10305 10316 10330 10347 10362 10378 10405 10423 10451 10483 10495 10521 10546 10565 10582 10590 10600 10606 10612 10619 10625 10631 10636 10641 10643
10388 10368 10349 10331 10315 10302 10290 10282 10276 10271 10269 10266 10265 10264 10266 10267 10271 10275 10283 10290 10300 10312 10326 10340 10356 10377 10396 10414 10445 10470 10496 10518 10538 10556 10573 10582 10589 10598 10607 10612 10618 10625 10631 10636 10639